Location: Pl�tzky
(52.0521°N, 11.8020°E)
Time: 22:26:01
(UTC+00:00)

Lacrosse 4 Rocket - Pass Details

Date: 22 November 2019
Orbit: 543 x 616 km, 68.0° (Epoch: 12 December)

Event Time Altitude Azimuth Distance (km) Brightness Sun altitude
Rises 17:16:23 0° 244° (WSW) 2,706 6.3 -18.4°
Reaches altitude 10° 17:18:46 10° 254° (WSW) 1,813 5.2 -18.8°
Maximum altitude 17:22:24 31° 318° (NW) 967 2.8 -19.3°
Enters shadow 17:24:43 18° 10° (N) 1,380 3.2 -19.7°
